Home > Weather > Tychy > Past weeks

Flag for Poland Weather for the Past 2 Weeks in Tychy, Poland

Now
52 °F

Passing clouds.


Feels Like: 49 °F
Forecast: 40 / 62 °F
Wind: 7 mph from Northeast

Location: Katowice Airport

Current Time: Apr 30, 2016 at 10:21:27 AM

Latest Report: Apr 30, 2016 at 10:00 AM


Visibility: N/A

Pressure: 30.12 "Hg

Humidity: 54%

Dew Point: 36 °F

Location of TychyLocation

Historic Weather in Tychy — Graph

°F

Tychy Temperature Yesterday

Maximum temperature yesterday: 57 °F (at 3:00 PM)
Minimum temperature yesterday: 30 °F (at 4:00 AM)
Average temperature yesterday: 45 °F

High & Low Weather Summary for the Past Weeks

 TemperatureHumidityPressure
High68 °F (Apr 17, 1:30 PM)100% (Apr 16, 4:30 AM)30.30 "Hg (Apr 16, 4:30 AM)
Low23 °F (Apr 26, 6:00 AM)24% (Apr 23, 1:30 PM)29.59 "Hg (Apr 24, 12:30 AM)
Average45 °F70%29.91 "Hg
* Reported Apr 15 9:00 AM — Apr 30 9:00 AM, Tychy, Weather by CustomWeather, © 2016

Note: Actual official high and low records may vary slightly from our data, if they occured in-between our weather recording intervals... More about our weather records

Advertising

Tychy Weather History for the Previous 24 Hours

Scroll right to see more
 ConditionsComfort  
Time TempWeatherWind HumidityBarometerVisibility
9:00 AM
Sat, Apr 30
52 °FSunny.2 mph67%30.12 "Hg10 mi
8:30 AM50 °FPassing clouds.3 mph71%30.12 "HgN/A
8:00 AM46 °FSunny.5 mph76%30.12 "Hg10 mi
7:30 AM43 °FSunny.2 mph81%30.12 "Hg10 mi
7:00 AM37 °FSunny.1 mph100%30.12 "Hg10 mi
6:30 AM34 °FSunny.2 mph93%30.12 "Hg10 mi
6:00 AM30 °FFog.1 mph100%30.12 "Hg5 mi
5:30 AM30 °FFog.3 mph100%30.12 "Hg6 mi
5:00 AM30 °FClear.3 mph100%30.12 "Hg10 mi
4:00 AM30 °FClear.1 mph100%30.12 "Hg10 mi
3:30 AM34 °FClear.5 mph87%30.12 "Hg10 mi
3:00 AM36 °FClear.7 mph93%30.12 "Hg10 mi
2:30 AM34 °FClear.5 mph87%30.12 "Hg10 mi
2:00 AM34 °FClear.5 mph87%30.12 "Hg10 mi
1:00 AM36 °FClear.2 mph87%30.15 "Hg10 mi
12:30 AM37 °FPassing clouds.3 mph81%30.15 "HgN/A
12:00 AM37 °FClear.5 mph81%30.12 "Hg10 mi
11:30 PM
Fri, Apr 29
36 °FClear.6 mph87%30.12 "Hg10 mi
11:00 PM36 °FClear.2 mph81%30.12 "Hg10 mi
10:30 PM37 °FClear.2 mph81%30.12 "Hg10 mi
10:00 PM39 °FClear.7 mph75%30.12 "Hg10 mi
9:30 PM39 °FClear.6 mph75%30.12 "Hg10 mi
9:00 PM41 °FClear.5 mph76%30.12 "Hg10 mi
8:30 PM46 °FSunny.3 mph57%30.12 "Hg10 mi
8:00 PM50 °FSunny.5 mph43%30.12 "Hg10 mi
7:30 PM52 °FSunny.8 mph41%30.12 "Hg10 mi
7:00 PM54 °FSunny.12 mph38%30.12 "Hg10 mi
6:30 PM55 °FSunny.12 mph38%30.12 "Hg10 mi
6:00 PM55 °FPassing clouds.8 mph36%30.12 "HgN/A
5:30 PM55 °FPassing clouds.10 mph36%30.12 "HgN/A
5:00 PM55 °FPassing clouds.12 mph41%30.12 "HgN/A
4:30 PM55 °FPassing clouds.8 mph36%30.12 "HgN/A
4:00 PM55 °FPassing clouds.10 mph36%30.12 "HgN/A
3:30 PM54 °FPassing clouds.9 mph38%30.12 "HgN/A
3:00 PM57 °FSunny.6 mph36%30.12 "Hg10 mi
2:30 PM54 °FPassing clouds.5 mph41%30.12 "HgN/A
2:00 PM54 °FPassing clouds.8 mph38%30.12 "HgN/A
1:30 PM55 °FSunny.2 mph36%30.15 "Hg10 mi
1:00 PM52 °FPassing clouds.6 mph44%30.15 "HgN/A
12:30 PM52 °FPassing clouds.6 mph44%30.15 "HgN/A
12:00 PM50 °FScattered clouds.5 mph50%30.15 "HgN/A
11:30 AM50 °FScattered clouds.5 mph50%30.15 "HgN/A
11:00 AM50 °FPassing clouds.5 mph54%30.15 "HgN/A
10:30 AM48 °FPassing clouds.3 mph58%30.15 "HgN/A
10:00 AM48 °FSunny.2 mph62%30.15 "Hg10 mi
Weather by CustomWeather, © 2016

See weather overviewHow to use our weather pages